Погода в Козьмино

Россия / Архангельская область     61°54′59″N   48°22′50″E
темп.,
°C
ветер,
м/с
пор.,
м/с
влажн.,
%
обл.,
%
осадки,
мм/ч
давл.,
гПа
погр.,
м
27 сентября, пн
пн2700:00+6всв3896100 0.3 1021560
03:00+5всв3695100 0.3 1023747
06:00+5всв3797100 0.2 1025682
09:00+4всв3795100 0.3 1027565
12:00+6в3685100 0.0 1028664
15:00+8в357240 0.0 1029826
18:00+3всв248715 0.0 103194
21:00+2всв22895 0.0 103223
28 сентября, вт
вт2800:00+1в11908 0.0 103310
03:000св119242 0.0 103410
06:000с119158 0.0 103410
09:00+5сз117026 0.0 1034279
12:00+8зсз23565 0.0 1033775
15:00+9ссз246479 0.0 1032928
18:00+6сз258946 0.0 1032119
21:00+6зсз2690100 0.0 1032166
29 сентября, ср
ср2900:00+6сз2592100 0.0 1032154
03:00+6ссз239293 0.0 103282
06:00+6ссз1294100 0.0 103244
09:00+8с1284100 0.0 1032143
12:00+11ссз126042 0.0 1032901
15:00+11зсз125753 0.0 10311070
18:00+7зсз228298 0.0 103117
21:00+6з228866 0.0 103130
30 сентября, чт
чт3000:00+6з259735 0.0 103089
03:00+6з279765 0.0 1030166
06:00+5зсз399486 0.0 1029245
09:00+8сз477642 0.0 1029411
12:00+12сз466317 0.0 1028749
15:00+12сз376612 0.0 1028875
18:00+8сз278855 0.0 1029159
21:00+6сз259664 0.0 1029117
1 октября, пт
пт100:00+6сз249371 0.0 1029104
03:00+6сз2693100 0.0 1029166
06:00+5сз2695100 0.0 1029166
09:00+8ссз248399 0.0 1030312
12:00+9сз2374100 0.0 1030624
15:00+10сз2373100 0.0 1030686
18:00+8зсз248194 0.0 1030118
21:00+7сз227999 0.0 103159